Tracking 18793 objects as of 22-September-2017
HD Live streaming from Space Station
objects crossing your sky now

AMC-5 (GE-5)

Track AMC-5 (GE-5) now!
AMC-5 (GE-5) is classified as:


NORAD ID: 25516
Int'l Code: 1998-063B
Perigee: 36,052.3 km
Apogee: 36,068.1 km
Inclination: 5.6 °
Period: 1,449.7 minutes
Semi major axis: 42431 km
RCS: 9.3322 m2 (large)
Launch date: October 28, 1998
Source: SOCIETE EUROPEENNE DES SATELLITES (SES)
Launch site: FRENCH GUIANA (FRGUI)

Broadband internet, business television; 16 Ku-band; CONUS
aabbcc
Your satellite tracking list
Your tracking list is empty





NASA's NSSDC Master Catalog

Two Line Element Set (TLE):
1 25516U 98063B   17264.95445899 +.00000016 +00000-0 +00000-0 0  9995
2 25516 005.5527 060.0089 0001860 167.5738 194.1911 00.99328799069142
Source of the keplerian elements: AFSPC